[[{"header":{"parameterUnit":"m.s-1","parameterCategory":1,"la1":30.2991,"la2":30.254,"lo1":-89.0895,"lo2":-89.0444,"dy":0.0017,"dx":0.0017,"nx":28,"ny":28,"refTime":"2023-11-13T09:00:00:Z","depth":0,"parameterNumber":2,"parameterNumberName":"U-component_of_WINDS"},"data":[0,0,0,0,0,0,0,0,0,0,0,0,0,0,0,0,0,0,0,0,0,0,0,0,0,0,0,0,0,0,0,0,0,0,0,0,0,0,0,0,0,0,0,0,0,0,0,0,0,0,0,0,0,0,0,0,0,0,-11.2492,-11.2493,0,-11.2597,-11.2599,-11.26,-11.2515,-11.2511,-11.2508,-11.2504,-11.2604,-11.261,-11.2616,0,0,0,0,0,0,0,0,0,0,0,0,0,-11.2213,-11.2218,-11.2492,-11.2494,-11.2495,-11.2597,-11.2599,-11.26,-11.2515,-11.2511,-11.2507,-11.2503,-11.2602,-11.261,-11.2617,0,0,0,0,0,0,0,0,0,0,0,0,0,-11.2327,-11.222,-11.2492,-11.2465,-11.2464,-11.2597,-11.2599,-11.26,-11.2516,-11.2511,-11.2506,-11.2501,-11.26,-11.2609,-11.2618,-11.2781,0,0,-11.2645,-11.2649,0,0,0,0,0,0,0,0,-11.2321,-11.2338,-11.2468,-11.2467,-11.2466,-11.2538,-11.2537,-11.2661,-11.2518,-11.2496,-11.2504,-11.2498,-11.2586,-11.2596,-11.2627,-11.2785,-11.279,-11.2646,-11.2652,-11.2655,-11.2658,0,0,0,0,0,0,0,-11.2313,-11.2333,-11.2533,-11.247,-11.2469,-11.2446,-11.2456,-11.256,-11.257,-11.2498,-11.2492,-11.2506,-11.2584,-11.2619,-11.2629,-11.2791,-11.2646,-11.2654,-11.2659,-11.2663,-11.3087,-11.3093,0,0,0,0,0,0,-11.2309,-11.2327,-11.253,-11.2537,-11.2379,-11.2456,-11.2467,-11.252,-11.2568,-11.2571,-11.251,-11.2501,-11.2606,-11.2618,-11.2632,-11.2823,-11.2655,-11.2664,-11.2669,-11.3081,-11.3088,-11.3095,0,0,0,0,0,0,-11.2303,-11.2328,-11.2526,-11.243,-11.2454,-11.2466,-11.2526,-11.2525,-11.2559,-11.2578,-11.2579,-11.2543,-11.2602,-11.2619,-11.2744,-11.2825,-11.2668,-11.2676,-11.3074,-11.3083,-11.3091,-11.3208,0,0,0,0,0,0,-11.2296,-11.2326,-11.2389,-11.2432,-11.2459,-11.2638,-11.2531,-11.2531,-11.2575,-11.2565,-11.2609,-11.2611,-11.2599,-11.2732,-11.2753,-11.2835,-11.2683,-11.3067,-11.3078,-11.3089,-11.3196,-11.3219,-11.3239,0,0,0,0,0,-11.2286,-11.2416,-11.2393,-11.2418,-11.2538,-11.2643,-11.2658,-11.2643,-11.2582,-11.2644,-11.2657,-11.261,-11.2815,-11.2745,-11.2769,-11.2854,-11.3061,-11.3075,-11.3088,-11.3187,-11.3215,-11.3238,0,0,0,0,0,0,-11.2378,-11.2421,-11.2395,-11.2544,-11.2591,-11.2629,-11.2706,-11.2674,-11.2736,-11.2723,-11.2701,-11.2712,-11.2843,-11.2862,-11.2784,-11.3014,-11.2928,-11.2947,-11.2995,-11.3022,-11.3043,-11.3032,-11.269,0,0,0,0,0,-11.2417,-11.25,-11.2533,-11.2661,-11.2686,-11.2693,-11.2738,-11.2724,-11.277,-11.2788,-11.281,-11.2855,-11.2929,-11.2978,-11.3047,-11.3202,-11.3208,-11.3273,-11.3294,-11.3312,-11.3325,-11.3406,-11.3434,-11.3138,-11.3138,-11.3138,0,0,-11.2495,-11.2529,-11.2582,-11.268,-11.2715,-11.2799,-11.2709,-11.2803,-11.2864,-11.2801,-11.2919,-11.2939,-11.2988,-11.3128,-11.319,-11.3147,-11.341,-11.3328,-11.3342,-11.3346,-11.3422,-11.345,-11.3475,-11.3147,-11.3145,-11.3144,0,0,-11.2679,-11.2716,-11.2825,-11.2863,-11.2918,-11.2923,-11.295,-11.2994,-11.3004,-11.3124,-11.3078,-11.3152,-11.3281,-11.3317,-11.3352,-11.3557,-11.3514,-11.3581,-11.3688,-11.3767,-11.379,-11.381,-11.3878,-11.3904,-11.3596,-11.3597,-11.3597,0,-11.2768,-11.2895,-11.2885,-11.2982,-11.3025,-11.2978,-11.3087,-11.3124,-11.3198,-11.3227,-11.3181,-11.3342,-11.3372,-11.3518,-11.3569,-11.3601,-11.3628,-11.3571,-11.3788,-11.3809,-11.3827,-11.3892,-11.3918,-11.3604,-11.3603,-11.3602,-11.3602,0,-11.3,-11.309,-11.3171,-11.3247,-11.33,-11.3403,-11.3406,-11.3462,-11.3446,-11.3455,-11.3577,-11.3613,-11.3688,-11.3724,-11.3707,-11.3868,-11.384,-11.3792,-11.3703,-11.3863,-11.3923,-11.3948,-11.3614,-11.3611,-11.3609,-11.3608,0,0,-11.3236,-11.331,-11.3339,-11.3372,-11.3432,-11.35,-11.3602,-11.3678,-11.3724,-11.378,-11.3861,-11.3974,-11.3931,-11.3971,-11.3959,-11.403,-11.4185,-11.3973,-11.3973,-11.4005,-11.436,-11.439,-11.4419,-11.4161,-11.4166,-11.417,-11.4354,0,-11.3419,-11.3596,-11.3592,-11.3755,-11.3836,-11.3796,-11.3884,-11.3929,-11.3942,-11.4012,-11.4026,-11.4104,-11.4044,-11.4068,-11.4137,-11.4151,-11.4254,-11.4139,-11.4231,-11.4235,-11.4212,-11.4452,-11.4484,-11.4655,-11.4378,-11.4382,-11.4385,0,-11.3653,-11.3718,-11.3891,-11.394,-11.3973,-11.4052,-11.4122,-11.4192,-11.4243,-11.4247,-11.4296,-11.4273,-11.4374,-11.4291,-11.4428,-11.4349,-11.4389,-11.4402,-11.4409,-11.441,-11.4313,-11.4453,-11.471,-11.4733,-11.4423,-11.442,-11.4417,0,-11.3801,-11.3933,-11.4052,-11.4083,-11.4145,-11.4201,-11.4229,-11.4276,-11.4322,-11.4385,-11.4414,-11.4488,-11.4525,-11.4582,-11.4579,-11.452,-11.4717,-11.4634,-11.472,-11.4719,-11.4755,-11.4751,-11.5016,-11.4794,-11.4794,-11.4793,-11.4793,0,-11.4,-11.4105,-11.4119,-11.4192,-11.4309,-11.4305,-11.442,-11.4443,-11.4486,-11.456,-11.4532,-11.4603,-11.4599,-11.4671,-11.4671,-11.4782,-11.4801,-11.4805,-11.4801,-11.4803,-11.4801,-11.4821,-11.4806,-11.48,-11.4798,-11.4797,-11.4796,0,-11.418,-11.4195,-11.4322,-11.4372,-11.4388,-11.4471,-11.4513,-11.4581,-11.4596,-11.4691,-11.4713,-11.4733,-11.4816,-11.4822,-11.4918,-11.4918,-11.5051,-11.5039,-11.5033,-11.5028,-11.5112,-11.5101,-11.5391,-11.5427,-11.5189,-11.5192,-11.5194,0,-11.4302,-11.4383,-11.4443,-11.4493,-11.4525,-11.4605,-11.4654,-11.4655,-11.4707,-11.4774,-11.4833,-11.4915,-11.4978,-11.5113,-11.5135,-11.5208,-11.5193,-11.529,-11.5202,-11.5201,-11.5186,-11.5179,-11.5185,-11.5303,-11.5306,-11.5308,-11.531,0,-11.4515,-11.452,-11.4592,-11.4669,-11.4728,-11.4788,-11.4843,-11.4885,-11.4893,-11.4953,-11.5039,-11.5089,-11.5189,-11.5268,-11.5341,-11.5368,-11.5339,-11.534,-11.5362,-11.5359,-11.535,-11.535,-11.5071,-11.533,-11.5328,-11.5327,-11.5326,-11.5325,-11.4665,-11.4734,-11.4788,-11.487,-11.4914,-11.4967,-11.5034,-11.5058,-11.5131,-11.5213,-11.5211,-11.5304,-11.5356,-11.545,-11.5484,-11.5556,-11.5523,-11.5557,-11.5564,-11.557,-11.5576,-11.5347,-11.557,-11.557,-11.5569,-11.5569,-11.5569,0,-11.4871,-11.4905,-11.4982,-11.5062,-11.5127,-11.5102,-11.5163,-11.5217,-11.5301,-11.5353,-11.5418,-11.5517,-11.5596,-11.5627,-11.5703,-11.5755,-11.5743,-11.5774,-11.5766,-11.5772,-11.5605,-11.5574,-11.5782,-11.5782,-11.5781,-11.5781,-11.5781,-11.5781,-11.4985,-11.51,-11.5112,-11.5248,-11.5281,-11.5375,-11.5412,-11.546,-11.5502,-11.5614,-11.568,-11.5702,-11.5745,-11.5825,-11.5895,-11.5903,-11.5929,-11.5964,-11.5964,-11.5806,-11.5784,-11.5763,-11.5734,-11.5971,-11.5972,-11.6124,-11.6126,-11.6127]},{"header":{"parameterUnit":"m.s-1","parameterCategory":1,"la1":30.2991,"la2":30.254,"lo1":-89.0895,"lo2":-89.0444,"dy":0.0017,"dx":0.0017,"nx":28,"ny":28,"refTime":"2023-11-13T09:00:00:Z","depth":0,"parameterNumber":3,"parameterNumberName":"V-component_of_WINDS"},"data":[0,0,0,0,0,0,0,0,0,0,0,0,0,0,0,0,0,0,0,0,0,0,0,0,0,0,0,0,0,0,0,0,0,0,0,0,0,0,0,0,0,0,0,0,0,0,0,0,0,0,0,0,0,0,0,0,0,0,3.3794,3.3793,0,3.3734,3.3734,3.3733,3.3613,3.361,3.3608,3.3606,3.3546,3.3547,3.3547,0,0,0,0,0,0,0,0,0,0,0,0,0,3.3807,3.3807,3.3794,3.3793,3.3792,3.3734,3.3734,3.3733,3.3613,3.361,3.3607,3.3605,3.3546,3.3547,3.3548,0,0,0,0,0,0,0,0,0,0,0,0,0,3.378,3.3807,3.3794,3.3726,3.3719,3.3735,3.3734,3.3733,3.3614,3.361,3.3607,3.3603,3.3546,3.3547,3.3548,3.3626,0,0,3.3551,3.3551,0,0,0,0,0,0,0,0,3.3781,3.3779,3.3736,3.373,3.3723,3.3677,3.3716,3.3697,3.3615,3.3654,3.3606,3.3601,3.3593,3.359,3.3586,3.3623,3.362,3.3551,3.3551,3.3552,3.3552,0,0,0,0,0,0,0,3.3783,3.3781,3.377,3.3736,3.3728,3.3699,3.3691,3.3712,3.3644,3.365,3.3641,3.3636,3.3588,3.3586,3.3584,3.3619,3.3551,3.3552,3.3552,3.3553,3.3719,3.3722,0,0,0,0,0,0,3.3795,3.3784,3.3772,3.3769,3.3744,3.3702,3.3693,3.3696,3.3644,3.3632,3.3639,3.363,3.3586,3.3583,3.3582,3.3671,3.3552,3.3553,3.3553,3.3715,3.372,3.3724,0,0,0,0,0,0,3.3796,3.3795,3.3775,3.3774,3.3769,3.3705,3.3709,3.3696,3.3693,3.3635,3.3623,3.3648,3.3583,3.358,3.3616,3.3667,3.3553,3.3554,3.3711,3.3716,3.3722,3.385,0,0,0,0,0,0,3.3797,3.3796,3.3824,3.3775,3.3769,3.381,3.3712,3.3698,3.3695,3.3684,3.3641,3.363,3.358,3.3615,3.3617,3.3666,3.3555,3.3706,3.3713,3.372,3.384,3.3859,3.3875,0,0,0,0,0,3.3797,3.3862,3.3826,3.3826,3.3803,3.3813,3.3809,3.375,3.37,3.3728,3.3691,3.3632,3.3661,3.362,3.3621,3.3671,3.3702,3.3711,3.3719,3.3833,3.3855,3.3874,0,0,0,0,0,0,3.3919,3.3855,3.3814,3.3865,3.3845,3.3792,3.3826,3.3775,3.3769,3.3759,3.3685,3.3677,3.3723,3.37,3.3655,3.3745,3.3672,3.3682,3.3758,3.3779,3.3796,3.3801,3.3556,0,0,0,0,0,3.3952,3.3965,3.3907,3.3958,3.395,3.3891,3.3892,3.3848,3.3825,3.3816,3.3781,3.3762,3.3767,3.3771,3.3772,3.3836,3.3827,3.3872,3.3889,3.3903,3.3913,3.3947,3.3967,3.3752,3.3752,3.3752,0,0,3.402,3.3986,3.3999,3.3982,3.3961,3.3977,3.3884,3.3904,3.3915,3.3819,3.3851,3.3825,3.3799,3.385,3.387,3.3832,3.397,3.3914,3.3926,3.3928,3.3958,3.3978,3.3997,3.3758,3.3757,3.3756,0,0,3.4152,3.4127,3.4167,3.4149,3.4119,3.4079,3.4089,3.4044,3.4024,3.4054,3.3983,3.3996,3.4005,3.399,3.3983,3.4112,3.4058,3.4114,3.4204,3.4239,3.4256,3.427,3.4318,3.4336,3.4123,3.4124,3.4124,0,3.4241,3.426,3.4195,3.422,3.4215,3.4129,3.417,3.4155,3.4128,3.4128,3.4085,3.4097,3.4073,3.412,3.4152,3.4148,3.4159,3.4119,3.4258,3.4272,3.4285,3.433,3.4348,3.4131,3.413,3.4129,3.4129,0,3.4372,3.4387,3.4423,3.4399,3.4398,3.4431,3.4372,3.4379,3.4336,3.4301,3.4335,3.4303,3.4297,3.4305,3.4262,3.4347,3.4324,3.4271,3.4197,3.4314,3.4355,3.4371,3.4141,3.4139,3.4137,3.4135,0,0,3.4579,3.4519,3.4533,3.4522,3.4484,3.4494,3.4524,3.4518,3.4527,3.4512,3.4536,3.4547,3.4499,3.4491,3.4446,3.4476,3.4583,3.442,3.4418,3.4453,3.4677,3.4718,3.4739,3.4546,3.4549,3.4552,3.468,0,3.4703,3.475,3.4693,3.4753,3.4767,3.4686,3.4712,3.4693,3.4661,3.4669,3.4634,3.4644,3.4578,3.4574,3.46,3.4565,3.4627,3.4554,3.457,3.4572,3.4581,3.476,3.4803,3.4925,3.4695,3.4697,3.4699,0,3.4855,3.4847,3.4909,3.4868,3.4872,3.4896,3.4887,3.4896,3.4872,3.4847,3.4841,3.4787,3.4815,3.4742,3.4781,3.4733,3.4736,3.472,3.4723,3.4723,3.4644,3.4767,3.4962,3.4981,3.4724,3.4722,3.472,0,3.5002,3.5007,3.5044,3.5037,3.499,3.501,3.4991,3.4964,3.4965,3.4957,3.4957,3.4954,3.4952,3.4951,3.4898,3.485,3.4945,3.4867,3.4926,3.4928,3.4951,3.495,3.5151,3.4951,3.495,3.495,3.4949,0,3.5148,3.519,3.511,3.5134,3.5179,3.5112,3.5159,3.5132,3.5109,3.5127,3.5056,3.5075,3.5003,3.5015,3.4974,3.5014,3.5013,3.4995,3.4984,3.5002,3.5005,3.5004,3.4995,3.4955,3.4954,3.4953,3.4952,0,3.5321,3.5269,3.5305,3.5258,3.5247,3.5283,3.5242,3.5263,3.5227,3.5251,3.5253,3.5197,3.5207,3.5155,3.5155,3.5128,3.5189,3.5162,3.5197,3.5189,3.5253,3.5248,3.5462,3.5487,3.5269,3.5271,3.5273,0,3.5418,3.5448,3.5404,3.5411,3.5396,3.5408,3.5409,3.5345,3.5349,3.5326,3.535,3.5354,3.5354,3.5375,3.5335,3.5336,3.531,3.5385,3.5309,3.5328,3.5313,3.5313,3.5317,3.5401,3.5404,3.5406,3.5408,0,3.5598,3.5571,3.5574,3.5569,3.5572,3.5565,3.5553,3.5563,3.5495,3.5503,3.5512,3.5513,3.5514,3.552,3.5512,3.5494,3.5441,3.5431,3.5446,3.5466,3.5485,3.5478,3.5242,3.5427,3.5425,3.5424,3.5423,3.5422,3.5737,3.576,3.5734,3.574,3.5725,3.5716,3.5734,3.57,3.5707,3.5703,3.5665,3.5682,3.5659,3.5644,3.5632,3.5645,3.561,3.563,3.5635,3.5642,3.5654,3.5482,3.5644,3.5643,3.5642,3.5642,3.5641,0,3.5914,3.5893,3.59,3.5886,3.5892,3.5839,3.5824,3.5833,3.5849,3.5832,3.5834,3.5846,3.5852,3.5813,3.5814,3.5833,3.5808,3.5835,3.5834,3.5832,3.5684,3.5673,3.5855,3.5855,3.5855,3.5855,3.5855,3.5855,3.6007,3.6045,3.6016,3.6046,3.6024,3.6041,3.6037,3.6029,3.6015,3.6032,3.6036,3.6011,3.5986,3.5985,3.5988,3.5977,3.5982,3.6018,3.5998,3.5862,3.5841,3.5822,3.5811,3.6019,3.6019,3.6144,3.6145,3.6146]}]]